Temp
7 7 7 7 7 6 6 6 5 5 5 5 5 5 5 5 5 5 6 5 5 6 6 6 6 6 6 6 6 6 6 6 6 6 6 5 5 5 5 5 5 5 4
7 7 7 7 7 6 6 5 5 5 5 5 5 5 5 5 5 5 5 6 5 6 5 6 6 6 6 5 6 6 6 5 5 5 5 5 5 5 5 5 5 5 5
6 7 7 7 6 6 6 5 5 5 5 5 5 5 5 5 5 5 5 6 6 5 5 6 5 6 5 5 5 5 5 5 5 5 5 5 5 5 5 4 4 4 4
6 7 7 6 6 6 5 5 5 5 5 4 5 5 5 5 5 5 5 5 5 6 5 5 5 5 5 5 5 5 5 5 4 4 4 4 4 4 4 4 4 4 4
6 6 6 6 6 6 5 5 5 4 4 4 4 5 5 5 5 5 5 5 5 5 5 5 5 5 5 5 4 4 4 4 4 4 3 4 3 3 3 3 4 4 4
6 5 6 6 5 5 5 4 4 4 4 4 4 4 4 4 4 4 4 4 4 4 4 4 5 4 4 4 4 3 3 3 3 3 3 3 3 3 3 3 3 3 3
5 5 4 4 4 4 4 4 4 4 4 3 3 3 4 4 4 4 4 4 4 4 4 4 4 4 3 3 3 3 2 2 2 2 2 2 3 3 3 3 3 3 3
4 4 4 4 3 4 4 4 3 3 3 3 3 3 3 3 4 3 3 3 3 4 3 3 3 2 2 2 2 2 2 2 2 2 2 2 2 2 2 2 2 2 2
4 3 3 3 3 3 3 3 3 3 3 3 3 2 3 3 3 3 3 3 3 3 2 2 1 1 1 1 1 1 1 1 1 1 1 1 1 1 1 1 1 1 1
3 3 3 2 2 3 3 3 2 2 2 2 2 2 2 2 2 2 3 3 3 2 2 1 1 1 1 0 0 1 1 1 1 1 1 1 1 1 1 1 1 1 0
3 2 2 2 2 2 2 2 2 2 2 2 2 2 2 2 2 2 2 2 2 1 1 1 2 2 2 1 1 1 1 1 1 1 1 1 1 0 0 -0 -1 -1 -2
3 2 2 1 2 2 2 2 2 2 1 1 1 2 2 1 1 1 1 1 1 1 1 1 1 1 1 1 1 1 1 0 0 -0 -1 -1 -2 -2 -3 -4 -5 -5 -5
2 2 2 2 2 2 2 1 1 1 1 1 1 1 1 1 1 1 0 0 0 0 0 0 -0 -0 -0 -0 -0 -0 -0 -1 -1 -2 -3 -4 -5 -5 -6 -6 -6 -7 -7
2 2 1 2 1 1 1 1 1 1 1 1 1 1 1 0 0 -0 -1 -1 -0 -0 -1 -1 -1 -2 -2 -2 -2 -2 -2 -3 -4 -5 -6 -6 -6 -7 -7 -7 -7 -9 -9
2 1 1 1 1 1 1 1 1 1 1 1 0 0 0 -0 -1 -1 -2 -2 -2 -1 -1 -1 -2 -3 -4 -4 -4 -5 -6 -6 -7 -8 -8 -8 -9 -9 -9 -9 -10 -9 -9
2 2 1 1 1 1 1 0 0 0 0 -0 -0 -0 -1 -1 -2 -2 -2 -2 -3 -3 -2 -3 -4 -5 -6 -6 -7 -7 -7 -8 -9 -9 -10 -10 -10 -10 -10 -10 -10 -10 -10
1 1 1 1 0 0 0 0 0 0 -0 -0 -1 -1 -2 -2 -2 -3 -3 -3 -3 -4 -3 -4 -5 -6 -7 -8 -8 -9 -10 -10 -10 -10 -10 -11 -11 -12 -11 -11 -11 -10 -10
1 1 0 0 0 -0 -0 -0 -0 -0 -1 -1 -1 -2 -2 -3 -3 -3 -4 -4 -5 -5 -5 -5 -6 -7 -8 -9 -9 -11 -11 -11 -11 -11 -11 -12 -12 -11 -12 -11 -11 -11 -11
1 0 -0 -0 -0 -0 -1 -1 -1 -1 -1 -2 -2 -3 -3 -3 -4 -4 -5 -5 -6 -6 -7 -7 -7 -9 -10 -11 -11 -12 -12 -11 -12 -12 -12 -12 -12 -12 -11 -11 -11 -11 -11
0 -0 -1 -1 -1 -1 -1 -1 -2 -2 -2 -3 -3 -3 -4 -4 -5 -5 -5 -6 -7 -8 -8 -9 -9 -10 -11 -11 -13 -13 -12 -12 -12 -12 -12 -12 -12 -11 -12 -12 -12 -12 -12
-0 -1 -1 -1 -1 -1 -2 -2 -2 -2 -3 -3 -4 -4 -5 -5 -5 -6 -7 -7 -8 -9 -10 -10 -11 -11 -11 -12 -13 -13 -13 -12 -12 -12 -12 -11 -12 -12 -12 -12 -13 -12 -11
-1 -1 -1 -2 -2 -2 -2 -2 -3 -3 -4 -4 -4 -5 -5 -6 -6 -7 -8 -9 -10 -10 -11 -12 -12 -12 -13 -13 -13 -13 -13 -12 -11 -12 -13 -11 -13 -11 -12 -12 -12 -12 -12
-1 -2 -2 -2 -3 -3 -3 -3 -4 -4 -4 -5 -5 -6 -6 -7 -8 -9 -9 -10 -11 -12 -13 -13 -13 -13 -14 -14 -14 -14 -13 -13 -12 -12 -14 -11 -12 -11 -12 -12 -13 -13 -12
-2 -2 -3 -3 -3 -3 -4 -4 -4 -5 -5 -5 -6 -7 -7 -8 -9 -9 -10 -11 -12 -12 -13 -14 -14 -14 -14 -14 -15 -14 -14 -13 -12 -13 -14 -14 -13 -12 -11 -12 -13 -13 -13
-3 -3 -3 -3 -4 -4 -4 -5 -5 -5 -5 -6 -7 -8 -8 -9 -10 -11 -11 -12 -12 -13 -13 -14 -14 -15 -15 -15 -15 -15 -14 -14 -12 -12 -14 -15 -12 -12 -11 -11 -12 -12 -12
-3 -3 -3 -4 -4 -5 -5 -5 -5 -6 -6 -7 -8 -9 -10 -11 -11 -12 -13 -13 -13 -13 -13 -14 -14 -14 -15 -15 -15 -15 -15 -15 -14 -12 -14 -14 -13 -13 -10 -10 -11 -12 -11
Height
3131 3131 3130 3130 3129 3129 3128 3128 3127 3127 3126 3125 3124 3124 3122 3120 3119 3117 3113 3114 3111 3110 3108 3107 3106 3104 3103 3102 3100 3100 3099 3098 3097 3096 3095 3095 3095 3094 3094 3093 3094 3095 3096
3128 3127 3127 3127 3127 3126 3125 3125 3124 3124 3123 3122 3121 3120 3118 3116 3115 3113 3109 3109 3107 3105 3103 3102 3101 3100 3098 3097 3095 3094 3093 3092 3091 3090 3089 3088 3087 3086 3086 3086 3086 3086 3086
3124 3124 3125 3124 3124 3123 3122 3122 3121 3120 3119 3118 3117 3116 3114 3112 3110 3108 3105 3102 3102 3100 3099 3097 3096 3095 3093 3091 3089 3088 3086 3085 3084 3083 3081 3080 3079 3078 3078 3077 3077 3077 3077
3121 3121 3122 3121 3121 3119 3119 3118 3117 3117 3116 3114 3113 3111 3109 3108 3106 3103 3101 3099 3096 3095 3094 3091 3090 3089 3087 3085 3083 3080 3079 3077 3076 3074 3072 3071 3071 3070 3069 3068 3068 3068 3068
3116 3116 3117 3117 3117 3116 3115 3115 3115 3113 3112 3110 3109 3107 3105 3103 3101 3099 3097 3094 3092 3089 3087 3087 3084 3082 3080 3077 3075 3073 3071 3069 3067 3066 3064 3063 3061 3060 3059 3059 3058 3058 3057
3111 3111 3112 3112 3112 3111 3111 3111 3111 3110 3108 3107 3105 3103 3101 3099 3096 3094 3092 3089 3086 3083 3081 3079 3077 3074 3072 3070 3067 3065 3062 3060 3058 3056 3055 3053 3052 3050 3050 3049 3048 3047 3046
3107 3106 3107 3107 3108 3107 3107 3107 3107 3106 3105 3103 3101 3098 3096 3094 3091 3089 3086 3083 3080 3077 3075 3072 3069 3066 3063 3060 3057 3055 3053 3051 3048 3046 3044 3043 3041 3039 3038 3037 3035 3034 3033
3102 3102 3102 3103 3103 3103 3103 3103 3103 3102 3101 3099 3097 3094 3091 3089 3087 3083 3080 3076 3073 3071 3067 3064 3061 3057 3054 3051 3048 3045 3043 3040 3038 3035 3032 3030 3028 3026 3024 3022 3020 3018 3017
3098 3098 3098 3098 3099 3099 3099 3099 3099 3098 3096 3095 3092 3090 3085 3082 3079 3076 3073 3070 3067 3064 3060 3057 3053 3049 3045 3042 3039 3036 3033 3030 3027 3024 3021 3017 3014 3011 3009 3006 3003 3000 2999
3092 3093 3094 3094 3094 3094 3094 3094 3094 3093 3092 3090 3088 3084 3080 3076 3071 3068 3065 3061 3058 3054 3051 3048 3046 3042 3037 3033 3029 3025 3022 3019 3014 3010 3007 3003 2999 2995 2991 2987 2983 2979 2977
3087 3088 3088 3089 3089 3090 3090 3090 3089 3088 3087 3084 3081 3078 3075 3070 3064 3060 3058 3055 3050 3046 3041 3036 3033 3029 3025 3020 3016 3010 3006 3002 2997 2993 2989 2984 2978 2973 2968 2964 2961 2957 2954
3081 3082 3082 3083 3084 3084 3085 3085 3084 3083 3081 3078 3075 3072 3067 3062 3056 3051 3046 3045 3040 3039 3032 3027 3024 3019 3014 3009 3004 2999 2993 2988 2982 2977 2971 2964 2957 2950 2945 2940 2936 2932 2929
3074 3076 3077 3078 3078 3079 3079 3079 3078 3076 3074 3072 3068 3064 3060 3055 3050 3044 3038 3033 3028 3027 3023 3020 3014 3007 3000 2994 2989 2983 2977 2971 2965 2959 2952 2945 2939 2932 2926 2921 2917 2914 2911
3069 3071 3072 3073 3074 3074 3074 3073 3072 3070 3068 3064 3061 3056 3051 3046 3041 3035 3029 3022 3016 3013 3010 3004 2999 2993 2987 2980 2973 2966 2959 2952 2946 2940 2932 2926 2921 2916 2912 2907 2902 2897 2895
3064 3066 3067 3068 3068 3069 3068 3067 3066 3063 3060 3057 3052 3047 3042 3037 3032 3026 3020 3014 3006 2996 2993 2991 2985 2978 2971 2964 2957 2949 2942 2935 2929 2923 2916 2909 2903 2899 2896 2893 2890 2887 2883
3058 3060 3062 3062 3063 3063 3063 3061 3059 3056 3052 3048 3043 3037 3032 3027 3022 3016 3010 3004 2997 2989 2978 2976 2970 2962 2955 2947 2940 2933 2926 2919 2914 2908 2901 2898 2893 2887 2882 2880 2877 2875 2873
3053 3056 3057 3057 3058 3058 3056 3054 3052 3048 3044 3038 3033 3028 3023 3017 3012 3005 2999 2993 2986 2979 2969 2965 2958 2949 2941 2932 2925 2918 2911 2906 2903 2898 2893 2887 2881 2876 2873 2869 2865 2863 2861
3049 3051 3052 3053 3053 3052 3050 3048 3044 3040 3035 3030 3024 3019 3013 3007 3001 2995 2988 2982 2975 2968 2958 2950 2943 2936 2927 2919 2911 2903 2898 2895 2890 2886 2882 2877 2872 2869 2863 2858 2855 2852 2849
3044 3046 3047 3047 3047 3045 3043 3040 3036 3031 3026 3021 3015 3009 3004 2997 2991 2984 2977 2970 2963 2955 2946 2937 2929 2921 2913 2905 2899 2894 2889 2885 2880 2875 2872 2869 2862 2861 2854 2849 2845 2840 2836
3040 3041 3042 3041 3040 3038 3035 3031 3027 3023 3017 3012 3006 3000 2994 2988 2981 2974 2966 2958 2950 2942 2934 2924 2916 2909 2902 2896 2889 2882 2878 2875 2871 2866 2863 2861 2852 2849 2843 2838 2833 2830 2825
3036 3036 3036 3035 3033 3031 3027 3023 3019 3014 3008 3003 2997 2990 2984 2977 2970 2963 2954 2946 2937 2929 2921 2912 2904 2897 2892 2887 2880 2876 2869 2864 2863 2858 2849 2853 2839 2838 2833 2828 2824 2820 2815
3031 3031 3030 3028 3026 3023 3019 3015 3010 3005 2999 2993 2987 2981 2975 2967 2958 2950 2941 2933 2925 2917 2909 2902 2895 2888 2883 2879 2872 2867 2861 2856 2851 2854 2837 2840 2831 2829 2824 2820 2815 2809 2805
3026 3025 3023 3021 3018 3015 3011 3006 3001 2996 2990 2984 2978 2971 2963 2954 2946 2938 2930 2922 2915 2908 2901 2893 2885 2880 2874 2871 2864 2860 2857 2851 2845 2841 2830 2827 2824 2820 2814 2811 2806 2802 2799
3020 3019 3016 3014 3010 3007 3002 2997 2993 2987 2981 2974 2966 2959 2951 2943 2935 2927 2918 2910 2904 2898 2892 2886 2879 2874 2869 2863 2857 2852 2847 2843 2840 2833 2824 2813 2814 2810 2806 2804 2800 2797 2793
3014 3012 3010 3006 3003 2998 2995 2989 2984 2977 2971 2964 2957 2949 2940 2932 2924 2915 2907 2900 2894 2890 2885 2880 2874 2867 2863 2859 2853 2845 2843 2834 2829 2827 2821 2808 2805 2799 2796 2796 2793 2790 2786
3008 3006 3003 3000 2996 2991 2987 2981 2975 2967 2960 2953 2947 2939 2930 2921 2913 2906 2897 2891 2885 2881 2876 2872 2869 2863 2857 2852 2847 2840 2832 2826 2820 2814 2815 2802 2798 2791 2783 2786 2785 2782 2778
Wind_Speed
16 17 18 18 18 17 16 15 15 15 15 15 16 17 18 20 22 24 27 24 25 24 24 24 24 24 24 25 25 26 26 27 27 29 29 30 31 32 33 35 37 39 40
18 19 20 19 19 18 17 15 15 15 15 16 17 18 20 22 24 24 26 23 23 23 22 23 23 24 25 26 28 28 29 29 29 31 32 32 33 34 34 35 36 36 38
19 20 21 20 19 18 17 15 15 14 15 16 18 20 22 23 23 23 23 25 22 23 23 24 25 26 27 29 30 31 32 32 33 33 34 34 34 35 36 36 36 37 38
23 23 25 20 18 17 16 15 14 14 16 18 20 21 22 22 23 23 23 23 24 24 24 26 27 28 30 32 33 34 35 35 35 35 37 37 37 37 37 38 39 39 40
28 23 23 21 17 15 15 14 15 15 16 19 21 22 23 23 23 24 24 25 25 26 27 28 30 31 33 34 36 36 37 38 38 38 38 39 39 39 39 40 40 41 42
29 24 21 20 17 16 14 14 14 15 17 19 21 23 24 25 25 25 25 26 26 29 30 32 33 35 36 36 37 38 39 39 39 39 39 40 41 41 41 42 42 43 44
28 24 21 21 19 18 15 15 15 16 17 20 22 25 25 26 26 26 27 28 30 31 32 34 36 37 38 39 39 38 38 39 40 41 41 42 44 45 47 48 49 50 52
27 24 20 21 19 19 16 16 16 16 18 21 23 25 28 29 26 27 28 30 32 34 35 36 38 39 39 40 40 41 41 42 44 45 47 49 51 52 54 56 58 59 60
28 26 22 21 22 20 18 17 17 18 20 21 25 28 30 31 31 31 31 32 34 35 37 37 37 38 39 41 41 43 44 45 47 50 52 54 56 59 60 62 64 66 67
31 29 23 23 20 20 19 18 18 19 22 25 27 29 32 33 34 34 35 37 39 40 40 38 36 37 39 41 43 45 47 49 52 55 56 58 61 64 66 69 71 73 74
31 29 24 25 23 21 20 19 20 22 25 28 30 33 35 35 36 38 38 38 41 40 42 43 43 44 45 48 49 52 55 57 59 61 64 67 70 72 72 73 74 75 75
30 27 24 21 23 23 21 21 23 25 28 31 33 36 38 38 39 41 44 43 43 40 43 44 45 47 49 51 53 56 58 60 64 66 68 70 71 72 71 70 68 67 67
29 26 28 25 23 22 22 24 26 28 31 34 36 39 40 40 40 42 45 45 46 43 44 44 47 50 54 56 58 61 64 66 68 67 67 67 64 63 63 61 60 58 59
26 26 25 23 23 23 24 26 28 31 35 37 39 41 42 42 42 44 44 47 49 48 48 50 51 54 56 59 62 65 66 67 67 64 61 60 58 55 53 54 54 54 52
28 24 25 25 25 25 27 29 31 34 37 40 42 43 44 43 43 43 44 46 50 54 54 53 55 57 59 60 62 64 64 63 59 56 54 51 47 46 44 43 42 42 42
27 28 28 25 25 27 29 31 34 37 40 41 43 45 44 44 44 44 46 47 50 54 59 57 58 59 59 61 61 60 60 56 52 48 47 43 42 42 42 38 36 37 38
25 26 26 26 27 28 31 34 37 40 42 43 45 44 44 45 44 45 47 50 52 54 59 59 58 58 58 59 58 55 52 50 46 42 39 38 36 36 36 38 38 38 38
28 27 26 27 28 30 33 36 40 42 42 45 44 44 44 45 46 47 50 51 54 55 58 62 60 59 57 55 53 51 47 45 41 39 35 30 34 33 36 39 41 41 40
27 26 27 28 30 32 35 38 41 42 44 43 43 44 44 46 47 49 51 53 55 55 57 60 61 57 54 51 49 46 44 41 38 34 33 31 36 35 40 41 41 41 40
25 26 27 29 32 34 37 40 41 43 42 42 43 44 45 47 48 51 53 54 54 55 56 56 55 52 50 48 46 45 42 39 33 34 33 33 39 36 37 35 33 31 34
25 27 29 31 34 36 39 40 41 41 41 42 43 44 46 48 50 52 53 54 54 54 52 50 49 49 48 45 42 41 40 37 33 35 43 31 38 33 29 26 28 31 36
26 28 30 32 36 37 38 38 39 40 41 42 44 45 48 50 52 53 54 53 51 49 47 45 45 47 44 40 40 38 37 38 39 33 43 33 33 27 25 26 26 30 30
26 28 31 35 34 35 36 37 38 40 42 43 45 47 49 51 51 52 52 50 47 44 41 42 44 43 41 37 37 37 35 36 40 38 42 37 30 23 26 24 21 24 26
27 31 31 31 32 33 35 37 39 41 43 45 47 48 50 51 50 50 49 47 45 42 40 40 40 38 35 33 36 37 38 39 36 37 37 40 33 27 25 20 14 18 23
27 27 28 29 31 34 35 38 40 42 45 47 49 49 50 50 48 48 47 45 42 39 36 34 34 32 31 30 32 37 35 40 38 33 28 38 35 33 26 17 12 16 20
25 26 27 29 32 34 36 38 41 44 46 48 48 48 47 46 45 44 43 42 40 36 33 30 26 28 29 29 31 34 37 38 38 37 28 38 35 38 32 16 13 16 20
Wind_Direction
283 287 288 289 290 287 291 289 288 288 291 290 292 296 298 298 297 296 296 296 295 294 295 295 294 293 292 292 291 289 287 286 284 282 280 279 277 274 271 267 263 260 258
280 286 288 288 288 285 283 279 279 284 287 292 297 300 302 301 300 299 299 299 297 297 297 297 297 296 295 294 292 290 288 286 284 282 281 281 279 276 274 271 269 265 262
279 284 286 285 283 281 278 276 276 281 287 291 298 303 304 303 301 300 300 300 299 300 299 299 298 296 295 294 292 291 290 289 286 285 283 280 278 278 276 274 271 269 266
277 276 283 282 282 279 274 272 274 280 289 300 306 307 306 305 303 302 301 300 301 299 299 299 299 298 297 296 294 293 292 290 289 287 285 284 281 279 276 275 274 273 270
278 279 276 284 279 273 268 268 274 285 297 305 309 310 310 309 306 305 303 300 301 300 300 299 298 297 296 296 294 293 291 290 288 287 285 284 283 281 278 276 274 273 272
277 276 278 284 281 271 265 268 276 289 301 309 313 313 313 311 309 306 302 302 301 301 301 300 300 299 297 295 292 291 290 290 288 287 285 284 283 282 280 279 277 276 274
271 271 276 278 274 274 262 267 277 291 302 310 313 315 314 313 309 304 302 302 301 300 299 299 298 296 295 294 293 291 290 289 288 287 286 284 283 281 280 279 277 276 274
263 263 272 274 266 270 259 266 278 293 304 311 314 316 316 313 309 305 305 304 302 301 300 299 298 296 295 294 294 293 293 292 291 290 289 287 286 285 284 282 280 278 275
255 256 259 267 266 266 257 265 279 293 302 309 315 316 317 314 312 310 306 304 300 300 298 298 297 296 296 294 293 292 291 290 289 287 287 286 285 284 283 282 280 278 276
253 257 261 262 261 257 256 267 282 293 302 309 312 315 316 313 312 310 309 306 305 303 301 298 296 294 293 292 292 292 292 291 290 289 289 288 288 287 285 283 282 280 278
249 253 255 262 261 256 258 272 284 294 303 308 312 315 314 313 311 309 307 304 304 304 303 302 301 300 299 299 300 299 298 297 296 295 294 294 293 290 288 285 281 279 277
245 247 256 253 253 254 262 275 286 295 302 307 311 313 314 313 312 310 308 307 305 304 302 303 303 302 299 299 300 300 299 299 298 297 298 297 295 293 291 288 285 282 280
239 240 249 256 249 254 266 278 288 296 301 306 310 311 313 313 311 309 308 307 306 305 304 303 305 306 305 305 304 302 301 301 301 301 298 296 295 293 291 288 286 282 279
235 238 252 252 253 259 270 281 291 297 302 307 308 311 312 312 311 309 308 307 306 307 308 309 310 309 306 306 306 305 304 304 303 302 300 298 295 291 287 285 284 283 283
229 251 246 252 253 262 274 285 292 298 303 305 308 311 312 311 310 309 308 309 309 310 310 312 311 310 309 307 306 305 305 304 303 304 303 300 297 294 290 286 286 284 283
230 235 250 248 256 267 278 288 296 300 302 305 309 311 311 311 310 310 310 309 309 309 309 312 311 310 309 308 306 306 304 305 308 307 303 299 296 293 292 293 289 288 287
240 244 247 252 262 273 283 292 297 300 303 308 310 310 310 310 310 310 309 309 310 310 309 310 310 310 308 306 306 306 308 309 308 301 299 300 295 293 295 293 292 291 288
239 251 248 258 268 279 288 294 298 301 306 308 309 310 310 310 310 310 309 310 310 310 309 310 311 309 307 308 309 311 311 308 307 304 303 302 297 298 296 293 293 291 290
245 245 254 265 276 285 292 296 300 304 307 308 308 309 309 310 310 310 311 311 310 310 310 310 310 310 310 311 311 310 309 307 308 306 307 306 300 300 293 291 290 289 288
244 252 263 274 283 289 294 299 301 305 306 307 308 309 310 311 312 311 311 311 311 310 310 309 308 310 310 312 313 310 308 308 310 308 307 309 302 301 296 295 292 290 288
251 261 271 280 287 293 298 300 304 305 307 308 309 311 311 312 311 311 312 312 312 311 310 310 311 311 311 313 310 308 308 309 312 312 308 315 308 307 304 296 297 293 288
259 269 278 285 291 294 299 303 304 306 308 310 311 313 313 312 314 315 314 313 312 311 311 313 312 310 311 311 308 310 310 312 311 315 312 321 309 311 303 302 302 292 296
267 276 283 289 293 302 302 304 306 308 311 313 313 313 315 316 315 314 313 311 311 312 314 313 311 311 310 312 308 309 309 311 312 319 314 316 311 315 305 311 293 287 293
277 283 287 296 301 301 305 307 310 312 313 313 315 317 317 317 317 315 313 312 313 316 315 312 308 308 310 310 309 309 313 312 313 318 318 313 317 319 303 314 295 292 290
281 289 299 300 303 305 309 311 312 313 314 316 318 320 319 317 317 318 314 313 313 313 311 309 308 310 310 309 309 308 312 312 315 319 325 312 316 319 309 316 277 276 284
294 296 301 304 306 310 311 312 314 316 317 318 319 320 320 319 318 317 315 315 313 314 314 314 311 310 310 312 311 312 314 315 318 320 332 314 318 322 315 326 305 305 298